Location: Cornospital
(48.0620°N, 3.3837°W)
Time: 20:02:09
(UTC+00:00)

Cosmos 2219 Rocket - Pass Details

Date: 17 June 2021
Orbit: 829 x 845 km, 71.0° (Epoch: 03 August)

Event Time Altitude Azimuth Distance (km) Brightness Sun altitude
Exits shadow 22:49:11 - 211° (SSW) 2,527 4.3 -16.0°
Reaches altitude 10° 22:49:22 10° 211° (SSW) 2,462 4.3 -16.0°
Maximum altitude 22:55:02 79° 299° (WNW) 866 2.3 -16.3°
Drops below altitude 10° 23:00:44 10° 26° (NNE) 2,474 5.3 -16.6°
Sets 23:03:11 0° 28° (NNE) 3,411 6.1 -16.8°
